Poplar Bluff, MO

5:19 PM CDT on March 23, 2017 (GMT -0500)
Poplar Bluff Municipal

Weather History for KPOF - April, 2014

Change the Weather History Date:

Wednesday, April 30, 2014

  Actual Average Record
Temperature  
Mean Temperature 52 °F -  
Max Temperature 59 °F 73 °F 88 °F (1941)
Min Temperature 46 °F 52 °F 39 °F (1921)
Degree Days  
Heating Degree Days 12    
Growing Degree Days 2 (Base 50)    
Moisture  
Dew Point 39 °F    
Average Humidity 58    
Maximum Humidity 74    
Minimum Humidity 39    
Precipitation  
Precipitation 0.00 in - - ()
Sea Level Pressure  
Sea Level Pressure 29.90 in    
Wind  
Wind Speed 8 mph (West)    
Max Wind Speed 14 mph    
Max Gust Speed 20 mph    
Visibility 10 miles    
Events      
Averages and records for this station are not official NWS values.
T = Trace of Precipitation, MM = Missing Value Source: NWS Daily Summary

Daily Weather History Graph

Daily Weather History Graph

Search for Another Location

Airport or City:

Trip Planner

Search our weather history database for the weather conditions in past years. The results will help you decide how hot, cold, wet, or windy it might be!

Date:

Astronomy

Apr. 30, 2014 Rise Set
Actual Time 6:08 AM CDT 7:49 PM CDT
Civil Twilight 5:40 AM CDT 8:16 PM CDT
Nautical Twilight 5:07 AM CDT 8:50 PM CDT
Astronomical Twilight 4:32 AM CDT 9:25 PM CDT
Moon 7:10 AM CDT (4/30) 9:26 PM CDT (4/30)
Length of Visible Light 14h 36m
Length of Day
13h 40m
New Moon, 2% of the Moon is Illuminated
Apr 30
New Moon
May 6
First Quarter
May 14
Full
May 21
Last Quarter
May 28
New

Hourly Weather History & Observations

Time (CDT) Temp. Dew Point Humidity Pressure Visibility Wind Dir Wind Speed Gust Speed Precip Events Conditions
12:53 AM 52.0 °F 39.0 °F 61% 29.81 in 10.0 mi WNW 6.9 mph - N/A   Clear
1:53 AM 50.0 °F 39.0 °F 66% 29.80 in 10.0 mi West 8.1 mph - N/A   Clear
3:53 AM 48.0 °F 39.0 °F 71% 29.82 in 10.0 mi WSW 6.9 mph - N/A   Clear
4:53 AM 46.9 °F 39.0 °F 74% 29.82 in 10.0 mi WSW 5.8 mph - N/A   Clear
6:53 AM 48.0 °F 39.9 °F 74% 29.85 in 10.0 mi West 3.5 mph - N/A   Overcast
7:53 AM 50.0 °F 41.0 °F 71% 29.85 in 10.0 mi WSW 4.6 mph - N/A   Overcast
8:03 AM 51.1 °F 41.0 °F 68% 29.84 in 10.0 mi WSW 4.6 mph - N/A   Mostly Cloudy
8:13 AM 52.0 °F 41.0 °F 66% 29.85 in 10.0 mi WSW 5.8 mph - N/A   Scattered Clouds
8:49 AM 53.6 °F 42.8 °F 67% 29.85 in 10.0 mi WNW 6.9 mph - N/A   Mostly Cloudy
8:53 AM 55.0 °F 42.1 °F 62% 29.86 in 10.0 mi WNW 9.2 mph - N/A   Mostly Cloudy
9:39 AM 54.0 °F 39.9 °F 59% 29.87 in 10.0 mi WNW 11.5 mph - N/A   Overcast
10:53 AM 54.0 °F 41.0 °F 62% 29.91 in 10.0 mi West 9.2 mph - N/A   Overcast
11:53 AM 54.0 °F 41.0 °F 62% 29.93 in 10.0 mi NNW 10.4 mph - N/A   Overcast
12:05 PM 53.1 °F 39.9 °F 61% 29.93 in 10.0 mi WNW 11.5 mph - N/A   Overcast
12:17 PM 53.1 °F 39.9 °F 61% 29.93 in 10.0 mi WNW 6.9 mph - N/A   Overcast
12:53 PM 55.9 °F 39.9 °F 55% 29.93 in 10.0 mi WNW 13.8 mph 18.4 mph N/A   Overcast
1:53 PM 55.0 °F 37.0 °F 51% 29.93 in 10.0 mi West 12.7 mph - N/A   Overcast
2:53 PM 57.0 °F 37.0 °F 47% 29.93 in 10.0 mi WNW 10.4 mph 18.4 mph N/A   Overcast
3:53 PM 57.0 °F 34.0 °F 42% 29.94 in 10.0 mi West 12.7 mph 19.6 mph N/A   Overcast
4:53 PM 57.0 °F 34.0 °F 42% 29.94 in 10.0 mi WNW 12.7 mph 19.6 mph N/A   Overcast
5:53 PM 59.0 °F 34.0 °F 39% 29.94 in 10.0 mi West 5.8 mph - N/A   Overcast
6:53 PM 57.9 °F 35.1 °F 42% 29.95 in 10.0 mi West 4.6 mph - N/A   Scattered Clouds
7:53 PM 54.0 °F 39.0 °F 57% 29.96 in 10.0 mi SSW 4.6 mph - N/A   Mostly Cloudy
8:53 PM 54.0 °F 41.0 °F 62% 29.97 in 10.0 mi SSW 4.6 mph - N/A   Overcast
9:53 PM 55.9 °F 35.1 °F 45% 29.99 in 10.0 mi West 10.4 mph 17.3 mph N/A   Overcast
10:53 PM 54.0 °F 35.1 °F 49% 29.99 in 10.0 mi WNW 8.1 mph - N/A   Overcast
11:53 PM 53.1 °F 35.1 °F 50% 29.99 in 10.0 mi West 3.5 mph - N/A   Mostly Cloudy